Location: Kuppenheim
(48.8299°N, 8.2568°E)
Time: 08:14:53
(UTC+00:00)

Envisat - Pass Details

Date: 05 December 2022
Orbit: 763 x 765 km, 98.2° (Epoch: 04 February)

Event Time Altitude Azimuth Distance (km) Brightness Sun altitude
Rises 04:44:00 0° 7° (N) 3,246 6.2 -22.0°
Reaches altitude 10° 04:46:28 10° 359° (N) 2,315 5.4 -21.6°
Enters shadow 04:48:45 23° 340° (NNW) 1,582 4.3 -21.3°
